Orbital Elements at Epoch 2459000.5 (2020-May-31.0) TDB
Reference: JPL 20 (heliocentric ecliptic J2000)
Element | Value | Uncertainty (1-sigma) | Units |
e | .0678277811190526 | 4.1821e-08 | |
a | 2.703664719679012 | 2.0656e-08 | au |
q | 2.520281140853319 | 1.1477e-07 | au |
i | 30.11491897388917 | 5.1837e-06 | deg |
node | 160.9854835654177 | 8.5968e-06 | deg |
peri | 49.58992941478326 | 4.0601e-05 | deg |
M | 275.7190372957471 | 4.1736e-05 | deg |
tp | 2459380.649711053013 (2021-Jun-15.14971105) | 0.00019058 | TDB |
period | 1623.781831483268 4.45 | 1.8609e-05 5.095e-08 | d yr |
n | .2217046607001093 | 2.5408e-09 | deg/d |
Q | 2.887048298504705 | 2.2058e-08 | au |
|
| | Orbit Determination Parameters
Additional Information
|